Fremont, MI

4:37 AM EDT on July 22, 2019 (GMT -0400)
Fremont

Weather History for KFFX - May, 2019

Change the Weather History Date:

Tuesday, May 21, 2019

  Actual Average (KMKG) Record (KMKG)
Temperature  
Mean Temperature 50 °F -  
Max Temperature 64 °F 69 °F 88 °F (1977)
Min Temperature 37 °F 47 °F 27 °F (2002)
Degree Days  
Heating Degree Days 14    
Moisture  
Dew Point 36 °F    
Average Humidity 54    
Maximum Humidity 98    
Minimum Humidity 31    
Precipitation  
Precipitation 0.00 in - - ()
Sea Level Pressure  
Sea Level Pressure 30.14 in    
Wind  
Wind Speed 5 mph ()    
Max Wind Speed 14 mph    
Max Gust Speed 23 mph    
Visibility 10.0 miles    
Events      
Averages and records for this station are not official NWS values.
T = Trace of Precipitation, MM = Missing Value Source: Averaged Metar Reports

Daily Weather History Graph

Daily Weather History Graph

Search for Another Location

Airport or City:

Astronomy

May. 21, 2019 Rise Set
Actual Time 6:13 AM EDT 9:07 PM EDT
Civil Twilight 5:40 AM EDT 9:41 PM EDT
Nautical Twilight 4:57 AM EDT 10:24 PM EDT
Astronomical Twilight 4:07 AM EDT 11:14 PM EDT
Moon No Moon Rise 8:28 AM EDT (5/21)
Length of Visible Light 16h 01m
Length of Day
14h 53m
Waning Gibbous, 91% of the Moon is Illuminated
May 21
Waning Gibbous
May 26
Last Quarter
Jun 3
New
Jun 10
First Quarter
Jun 17
Full

Hourly Weather History & Observations

Time (EDT) Temp. Windchill Dew Point Humidity Pressure Visibility Wind Dir Wind Speed Gust Speed Precip Events Conditions
12:15 AM 44.1 °F - 36.7 °F 75% 30.15 in 10.0 mi Calm Calm - N/A   Clear
12:36 AM 43.7 °F - 36.0 °F 74% 30.15 in 10.0 mi Calm Calm - N/A   Clear
12:55 AM 41.5 °F - 37.9 °F 87% 30.15 in 10.0 mi Calm Calm - N/A   Clear
1:15 AM 39.7 °F - 37.9 °F 93% 30.15 in 10.0 mi Calm Calm - N/A   Clear
1:36 AM 40.1 °F - 38.1 °F 93% 30.16 in 10.0 mi Calm Calm - N/A   Clear
2:15 AM 39.6 °F - 38.3 °F 95% 30.16 in 10.0 mi Calm Calm - N/A   Clear
2:36 AM 39.2 °F - 38.1 °F 96% 30.16 in 10.0 mi Calm Calm - N/A   Clear
2:56 AM 41.0 °F - 36.1 °F 83% 30.15 in 10.0 mi Calm Calm - N/A   Clear
3:15 AM 40.1 °F - 37.6 °F 91% 30.16 in 10.0 mi Calm Calm - N/A   Clear
3:36 AM 40.3 °F - 38.1 °F 92% 30.17 in 10.0 mi Calm Calm - N/A   Clear
3:56 AM 39.7 °F - 38.1 °F 94% 30.18 in 10.0 mi Calm Calm - N/A   Clear
4:15 AM 39.6 °F - 38.5 °F 96% 30.18 in 10.0 mi Calm Calm - N/A   Clear
4:35 AM 39.6 °F - 38.1 °F 95% 30.18 in 10.0 mi Calm Calm - N/A   Clear
4:56 AM 38.5 °F - 37.6 °F 97% 30.18 in 10.0 mi Calm Calm - N/A   Clear
5:15 AM 37.9 °F - 37.4 °F 98% 30.17 in 10.0 mi Calm Calm - N/A   Clear
5:35 AM 38.3 °F - 37.2 °F 96% 30.16 in 10.0 mi Calm Calm - N/A   Clear
5:55 AM 37.6 °F - 36.7 °F 97% 30.17 in 10.0 mi Calm Calm - N/A   Clear
6:16 AM 37.6 °F - 37.0 °F 98% 30.18 in 10.0 mi Calm Calm - N/A   Clear
6:36 AM 39.0 °F 35.7 °F 37.6 °F 95% 30.17 in 10.0 mi NE 4.6 mph - N/A   Clear
6:55 AM 41.2 °F 39.2 °F 37.0 °F 85% 30.16 in 10.0 mi ENE 3.5 mph - N/A   Clear
7:16 AM 43.0 °F 40.3 °F 37.8 °F 82% 30.17 in 10.0 mi ENE 4.6 mph - N/A   Clear
7:36 AM 43.9 °F 42.3 °F 38.3 °F 81% 30.18 in 10.0 mi ENE 3.5 mph - N/A   Clear
7:55 AM 44.6 °F 43.1 °F 38.8 °F 80% 30.19 in 10.0 mi ENE 3.5 mph - N/A   Clear
8:15 AM 45.3 °F 42.3 °F 38.8 °F 78% 30.18 in 10.0 mi East 5.8 mph - N/A   Clear
8:35 AM - - - N/A% - - North - - N/A   Unknown
8:55 AM - - - N/A% - - North - - N/A   Unknown
9:15 AM - - - N/A% - - North - - N/A   Unknown
9:16 AM - - - N/A% - - North - - N/A   Unknown
9:35 AM 51.1 °F - 37.4 °F 60% 30.19 in 10.0 mi ESE 8.1 mph - N/A   Unknown
9:56 AM 51.8 °F - 36.1 °F 55% 30.19 in 10.0 mi East 10.4 mph 18.4 mph N/A   Clear
10:15 AM 53.6 °F - 35.8 °F 51% 30.19 in 10.0 mi ESE 9.2 mph 16.1 mph N/A   Clear
10:35 AM 55.8 °F - 35.2 °F 46% 30.19 in 10.0 mi ESE 10.4 mph - N/A   Clear
10:36 AM 55.9 °F - 35.2 °F 46% 30.19 in 10.0 mi ESE 9.2 mph - N/A   Clear
10:55 AM 55.9 °F - 34.2 °F 44% 30.19 in 10.0 mi East 9.2 mph 16.1 mph N/A   Clear
10:56 AM 56.1 °F - 34.3 °F 44% 30.19 in 10.0 mi East 11.5 mph 16.1 mph N/A   Clear
11:15 AM 57.4 °F - 33.4 °F 40% 30.18 in 10.0 mi East 10.4 mph 19.6 mph N/A   Clear
11:35 AM 58.1 °F - 33.3 °F 39% 30.18 in 10.0 mi East 8.1 mph 18.4 mph N/A   Clear
11:55 AM 59.0 °F - 32.4 °F 37% 30.18 in 10.0 mi ESE 9.2 mph 20.7 mph N/A   Clear
11:56 AM 59.0 °F - 32.5 °F 37% 30.18 in 10.0 mi ESE 10.4 mph 20.7 mph N/A   Clear
12:15 PM 60.3 °F - 32.7 °F 35% 30.18 in 10.0 mi ESE 11.5 mph - N/A   Clear
12:35 PM 59.9 °F - 31.8 °F 35% 30.19 in 10.0 mi ESE 11.5 mph 18.4 mph N/A   Clear
12:55 PM 60.3 °F - 31.6 °F 34% 30.18 in 10.0 mi ESE 13.8 mph 20.7 mph N/A   Clear
12:56 PM 60.3 °F - 31.6 °F 34% 30.17 in 10.0 mi ESE 12.7 mph 20.7 mph N/A   Clear
1:15 PM 61.0 °F - 31.8 °F 33% 30.17 in 10.0 mi ESE 9.2 mph 18.4 mph N/A   Clear
1:35 PM 61.9 °F - 31.3 °F 32% 30.16 in 10.0 mi East 11.5 mph 23.0 mph N/A   Clear
1:55 PM 62.8 °F - 32.0 °F 32% 30.17 in 10.0 mi ESE 9.2 mph - N/A   Clear
1:56 PM 62.6 °F - 32.0 °F 32% 30.17 in 10.0 mi ESE 9.2 mph - N/A   Clear
2:15 PM 63.5 °F - 32.9 °F 32% 30.17 in 10.0 mi SE 8.1 mph - N/A   Clear
2:16 PM 63.7 °F - 33.3 °F 32% 30.17 in 10.0 mi ESE 11.5 mph 17.3 mph N/A   Clear
2:35 PM 62.4 °F - 31.3 °F 31% 30.17 in 10.0 mi SE 10.4 mph 21.9 mph N/A   Clear
2:55 PM 61.9 °F - 31.6 °F 32% 30.16 in 10.0 mi SE 11.5 mph 16.1 mph N/A   Clear
3:15 PM 62.8 °F - 32.5 °F 32% 30.17 in 10.0 mi SSE 9.2 mph 16.1 mph N/A   Clear
3:35 PM 63.1 °F - 33.1 °F 33% 30.16 in 10.0 mi SE 11.5 mph 16.1 mph N/A   Clear
3:36 PM 63.3 °F - 33.1 °F 32% 30.16 in 10.0 mi SE 12.7 mph 17.3 mph N/A   Clear
3:55 PM 63.3 °F - 33.1 °F 32% 30.15 in 10.0 mi SE 11.5 mph 16.1 mph N/A   Clear
4:15 PM 62.2 °F - 33.8 °F 35% 30.15 in 10.0 mi ESE 10.4 mph - N/A   Clear
4:35 PM 61.9 °F - 34.3 °F 36% 30.14 in 10.0 mi SE 8.1 mph 16.1 mph N/A   Clear
4:36 PM 61.9 °F - 34.7 °F 36% 30.13 in 10.0 mi SE 9.2 mph 16.1 mph N/A   Clear
4:55 PM 63.5 °F - 33.8 °F 33% 30.14 in 10.0 mi SE 8.1 mph 18.4 mph N/A   Clear
5:15 PM 64.0 °F - 33.6 °F 32% 30.12 in 10.0 mi SE 10.4 mph - N/A   Clear
5:16 PM 64.2 °F - 33.3 °F 32% 30.12 in 10.0 mi SE 11.5 mph - N/A   Clear
5:35 PM 64.2 °F - 34.9 °F 34% 30.11 in 10.0 mi East 10.4 mph - N/A   Clear
5:55 PM 63.1 °F - 34.2 °F 34% 30.11 in 10.0 mi ESE 12.7 mph 19.6 mph N/A   Clear
5:56 PM 63.0 °F - 34.2 °F 34% 30.11 in 10.0 mi ESE 13.8 mph 19.6 mph N/A   Clear
6:15 PM 64.4 °F - 35.8 °F 35% 30.11 in 10.0 mi ESE 13.8 mph - N/A   Clear
6:35 PM 62.8 °F - 35.6 °F 36% 30.10 in 10.0 mi ESE 9.2 mph 19.6 mph N/A   Clear
6:55 PM 62.2 °F - 35.6 °F 37% 30.10 in 10.0 mi ESE 12.7 mph 18.4 mph N/A   Clear
6:56 PM 62.2 °F - 35.8 °F 37% 30.10 in 10.0 mi ESE 13.8 mph 19.6 mph N/A   Clear
7:15 PM 61.9 °F - 36.1 °F 38% 30.09 in 10.0 mi East 8.1 mph - N/A   Clear
7:35 PM 61.7 °F - 36.1 °F 39% 30.08 in 10.0 mi ESE 8.1 mph - N/A   Clear
7:55 PM 61.2 °F - 36.5 °F 40% 30.07 in 10.0 mi ESE 8.1 mph 17.3 mph N/A   Scattered Clouds
7:56 PM 61.2 °F - 36.7 °F 40% 30.07 in 10.0 mi ESE 8.1 mph - N/A   Scattered Clouds
8:15 PM 60.8 °F - 37.0 °F 41% 30.07 in 10.0 mi ESE 9.2 mph 16.1 mph N/A   Scattered Clouds
8:35 PM 60.3 °F - 37.6 °F 43% 30.07 in 10.0 mi ESE 9.2 mph - N/A   Mostly Cloudy
8:55 PM 59.7 °F - 38.1 °F 45% 30.06 in 10.0 mi ESE 9.2 mph - N/A   Scattered Clouds
9:15 PM 59.0 °F - 38.7 °F 47% 30.07 in 10.0 mi ESE 8.1 mph - N/A   Clear
9:16 PM 59.0 °F - 38.7 °F 47% 30.06 in 10.0 mi ESE 8.1 mph - N/A   Clear
9:35 PM 58.8 °F - 39.0 °F 48% 30.06 in 10.0 mi East 4.6 mph - N/A   Scattered Clouds
9:36 PM 58.6 °F - 39.2 °F 48% 30.06 in 10.0 mi East 4.6 mph - N/A   Scattered Clouds
9:55 PM 58.3 °F - 40.1 °F 51% 30.06 in 10.0 mi East 8.1 mph - N/A   Mostly Cloudy
10:15 PM 58.3 °F - 38.3 °F 47% 30.06 in 10.0 mi East 9.2 mph 17.3 mph N/A   Scattered Clouds
10:35 PM 57.7 °F - 37.4 °F 47% 30.07 in 10.0 mi ESE 10.4 mph 17.3 mph N/A   Clear
10:36 PM 57.7 °F - 37.4 °F 47% 30.07 in 10.0 mi ESE 9.2 mph 17.3 mph N/A   Clear
10:55 PM 57.2 °F - 36.5 °F 46% 30.07 in 10.0 mi ESE 10.4 mph 16.1 mph N/A   Clear
10:56 PM 57.2 °F - 36.3 °F 46% 30.07 in 10.0 mi ESE 10.4 mph 16.1 mph N/A   Clear
11:15 PM 56.7 °F - 35.2 °F 45% 30.06 in 10.0 mi East 10.4 mph 16.1 mph N/A   Clear
11:16 PM 56.7 °F - 35.2 °F 45% 30.06 in 10.0 mi East 10.4 mph - N/A   Clear
11:35 PM 56.3 °F - 34.9 °F 45% 30.05 in 10.0 mi East 9.2 mph 17.3 mph N/A   Scattered Clouds
11:36 PM 56.3 °F - 34.9 °F 45% 30.05 in 10.0 mi ESE 10.4 mph 17.3 mph N/A   Scattered Clouds
11:55 PM 56.3 °F - 34.7 °F 44% 30.06 in 10.0 mi East 6.9 mph - N/A   Mostly Cloudy